Flag for U.S.A. Weather past 2 weeks in Austin, Texas, U.S.A.

Now
77 °F

Clear.


Feels Like: 79 °F
Forecast: 66 / 86 °F
Wind: 5 mph from North

Location: Camp Mabry / Austin City

Current Time: Sep 23, 2014 at 12:21:20 AM

Latest Report: Sep 22, 2014 at 11:51 PM


Visibility: 10 mi

Pressure: 30.08 "Hg

Humidity: 71%

Dew point: 67 °F

Location of AustinLocation

Historic Weather in Austin — Graph

°F

Austin temperature yesterday

Maximum temperature yesterday: 91 °F (at 1:51 PM)
Minimum temperature yesterday: 71 °F (at 5:51 AM)
Average temperature yesterday: 81 °F

Past Weeks' High & Low Weather Summary

 TemperatureHumidityPressure
High98 °F (Sep 10, 2:51 PM)100% (Sep 12, 6:51 PM)30.23 "Hg (Sep 12, 6:51 PM)
Low60 °F (Sep 13, 7:51 AM)35% (Sep 11, 5:51 PM)29.74 "Hg (Sep 10, 5:51 PM)
Average79 °F75%29.97 "Hg
* Reported Sep 7 10:51 PM — Sep 22 10:51 PM, Austin, Weather by CustomWeather, © 2014

Note: Actual official high and low records may vary slightly from our data, if they occured in-between our weather recording intervals... More about our weather records

Advertising

Austin weather history for previous 24 hours

 ConditionsComfort  
Time TempWeatherWind HumidityBarometerVisibility
10:51 PM
Sep 22
79 °FClear.5 mph72%30.08 "Hg10 mi
9:51 PM80 °FPassing clouds.3 mph71%30.06 "Hg10 mi
8:51 PM82 °FClear.3 mph67%30.05 "Hg10 mi
7:51 PM83 °FPartly sunny.5 mph63%30.03 "Hg10 mi
6:51 PM86 °FPassing clouds.3 mph57%30.02 "Hg10 mi
5:51 PM88 °FSunny.6 mph52%30.01 "Hg10 mi
4:51 PM90 °FScattered clouds.7 mph48%30.01 "Hg10 mi
3:51 PM91 °FScattered clouds.7 mph47%30.03 "Hg10 mi
2:51 PM90 °FPassing clouds.6 mph48%30.05 "Hg10 mi
1:51 PM91 °FPassing clouds.5 mph49%30.07 "Hg10 mi
12:51 PM90 °FSunny.3 mph48%30.09 "Hg10 mi
11:51 AM87 °FSunny.7 mph51%30.11 "Hg10 mi
10:51 AM84 °FSunny.7 mph57%30.11 "Hg10 mi
9:51 AM82 °FSunny.3 mph63%30.11 "Hg10 mi
8:51 AM76 °FSunny.No wind74%30.11 "Hg10 mi
7:51 AM71 °FClear.No wind90%30.09 "Hg10 mi
6:51 AM71 °FClear.No wind90%30.08 "Hg10 mi
5:51 AM71 °FClear.3 mph90%30.06 "Hg10 mi
4:51 AM72 °FClear.3 mph84%30.05 "Hg10 mi
3:51 AM72 °FClear.3 mph84%30.05 "Hg10 mi
2:51 AM72 °FClear.No wind84%30.06 "Hg10 mi
1:51 AM73 °FClear.No wind79%30.06 "Hg10 mi
12:51 AM72 °FClear.No wind84%30.05 "Hg10 mi
Weather by CustomWeather, © 2014

See weather overviewHow to use our weather pages